Terug naar catalogus

STARLINK-35708

ActiefCommunicatieVLEO
NORAD 66277·PAYLOAD·🇺🇸 United States

Gelanceerd Oct 31, 2025 vanaf Vandenberg Space Force Base

Loading…

Volgende Passages (komende 24 uur)

TLE

VersSource: CelesTrak SupGP

Epoch: Sep 14, 2026, 22:44 UTC

1 66277C 25247N   26257.94770833 -.00003459  00000+0 -10223-3 0  2571
2 66277  53.1599  28.0105 0001049  83.4623 190.3393 15.34383507    16

Volg STARLINK-35708 in realtime met AllMySat

Download on the App Store